User: anonymous   Login
Location: Batang Balui
(2.7000°N, 113.7833°E)
Time: 13:03:45
(UTC+00:00)
Language:

NOAA 15 - Orbit

View from above orbital plane
View from above orbital plane
View from above satellite
View from above satellite

Ground track
Ground track

The orbit data is extracted from the following two-line orbital elements,

1 25338U 98030A   23087.20260464  .00000327  00000-0  15449-3 0  9993
2 25338  98.6157 117.6113 0010397 184.0284 176.0814 14.26277679293716
Epoch (UTC): 28 March 2023 04:51:45
Eccentricity: 0.0010397
inclination: 98.6157°
perigee height: 797 km
apogee height: 811 km
right ascension of ascending node: 117.6113°
argument of perigee: 184.0284°
revolutions per day: 14.26277679
mean anomaly at epoch: 176.0814°
orbit number at epoch: 29371

The dashed part of the orbit path shows where the satellite is in the earth's shadow,  

DLR